| time (UTC) | temp F | wind direction | speed MPH | gust MPH | rain 1hr in | rain 24hr in | rain mn in | humidity % | barometer mb |
| 20260507141620 | 55 | 127 | 0.0 | 0.0 | 0.00 | 0.00 | 0.00 | 43 | 1019.0 |
| 20260507141121 | 54 | 127 | 0.0 | 1.0 | 0.00 | 0.00 | 0.00 | 44 | 1018.9 |
| 20260507140621 | 54 | 127 | 0.0 | 1.0 | 0.00 | 0.00 | 0.00 | 44 | 1018.9 |
| 20260507140129 | 54 | 126 | 0.0 | 2.0 | 0.00 | 0.00 | 0.00 | 44 | 1019.0 |
| 20260507135630 | 54 | 124 | 2.0 | 2.0 | 0.00 | 0.00 | 0.00 | 41 | 1019.0 |
| 20260507135119 | 54 | 124 | 0.0 | 1.0 | 0.00 | 0.00 | 0.00 | 43 | 1019.0 |
| 20260507134617 | 53 | 101 | 1.0 | 1.0 | 0.00 | 0.00 | 0.00 | 45 | 1018.9 |
| 20260507134142 | 51 | 350 | 0.0 | 1.0 | 0.00 | 0.00 | 0.00 | 47 | 1018.9 |
| 20260507133621 | 50 | 350 | 0.0 | 1.0 | 0.00 | 0.00 | 0.00 | 49 | 1018.8 |
| 20260507133129 | 49 | 350 | 0.0 | 0.0 | 0.00 | 0.00 | 0.00 | 50 | 1018.9 |
| 20260507132610 | 49 | 350 | 0.0 | 1.0 | 0.00 | 0.00 | 0.00 | 50 | 1018.8 |
| 20260507132112 | 48 | 347 | 0.0 | 1.0 | 0.00 | 0.00 | 0.00 | 51 | 1018.9 |
| 20260507131620 | 48 | 347 | 0.0 | 1.0 | 0.00 | 0.00 | 0.00 | 52 | 1019.0 |
| 20260507131120 | 48 | 83 | 0.0 | 1.0 | 0.00 | 0.00 | 0.00 | 53 | 1019.0 |
| 20260507130122 | 49 | 83 | 0.0 | 1.0 | 0.00 | 0.00 | 0.00 | 51 | 1018.9 |
| 20260507125623 | 49 | 83 | 0.0 | 1.0 | 0.00 | 0.00 | 0.00 | 48 | 1018.9 |
| 20260507125131 | 49 | 83 | 0.0 | 2.0 | 0.00 | 0.00 | 0.00 | 46 | 1019.0 |
| 20260507124612 | 49 | 83 | 1.0 | 2.0 | 0.00 | 0.00 | 0.00 | 46 | 1019.1 |
| 20260507124113 | 49 | 58 | 0.0 | 1.0 | 0.00 | 0.00 | 0.00 | 48 | 1019.1 |
| 20260507123641 | 48 | 58 | 1.0 | 2.0 | 0.00 | 0.00 | 0.00 | 48 | 1019.1 |
| 20260507123117 | 48 | 58 | 1.0 | 2.0 | 0.00 | 0.00 | 0.00 | 48 | 1018.9 |
| 20260507122624 | 48 | 58 | 1.0 | 2.0 | 0.00 | 0.00 | 0.00 | 49 | 1018.7 |
| 20260507122124 | 47 | 57 | 1.0 | 1.0 | 0.00 | 0.00 | 0.00 | 50 | 1018.6 |
| 20260507121626 | 47 | 57 | 0.0 | 1.0 | 0.00 | 0.00 | 0.00 | 51 | 1018.6 |
| 20260507121133 | 47 | 57 | 0.0 | 1.0 | 0.00 | 0.00 | 0.00 | 50 | 1018.6 |
| 20260507120634 | 47 | 58 | 0.0 | 1.0 | 0.00 | 0.00 | 0.00 | 49 | 1018.5 |
| 20260507120120 | 47 | 57 | 0.0 | 1.0 | 0.00 | 0.00 | 0.00 | 49 | 1018.5 |
| 20260507115620 | 47 | 58 | 0.0 | 2.0 | 0.00 | 0.00 | 0.00 | 49 | 1018.6 |
| 20260507115121 | 47 | 58 | 1.0 | 2.0 | 0.00 | 0.00 | 0.00 | 49 | 1018.8 |
| 20260507114629 | 47 | 50 | 1.0 | 1.0 | 0.00 | 0.00 | 0.00 | 49 | 1018.9 |
| 20260507114111 | 47 | 50 | 1.0 | 1.0 | 0.00 | 0.00 | 0.00 | 49 | 1018.9 |
| 20260507113611 | 47 | 57 | 0.0 | 2.0 | 0.00 | 0.00 | 0.00 | 49 | 1018.8 |
| 20260507113119 | 47 | 57 | 1.0 | 2.0 | 0.00 | 0.00 | 0.00 | 49 | 1018.9 |
| 20260507112620 | 47 | 40 | 0.0 | 1.0 | 0.00 | 0.00 | 0.00 | 49 | 1018.9 |
| 20260507112127 | 47 | 40 | 0.0 | 1.0 | 0.00 | 0.00 | 0.00 | 48 | 1019.1 |
| 20260507111629 | 47 | 40 | 0.0 | 1.0 | 0.00 | 0.00 | 0.00 | 48 | 1019.2 |
| 20260507111129 | 47 | 40 | 0.0 | 0.0 | 0.00 | 0.00 | 0.00 | 48 | 1019.1 |
| 20260507110637 | 47 | 40 | 0.0 | 0.0 | 0.00 | 0.00 | 0.00 | 49 | 1019.0 |
| 20260507110115 | 47 | 40 | 0.0 | 0.0 | 0.00 | 0.00 | 0.00 | 49 | 1018.9 |
| 20260507105615 | 47 | 40 | 0.0 | 1.0 | 0.00 | 0.00 | 0.00 | 48 | 1018.9 |
| 20260507105123 | 48 | 40 | 0.0 | 1.0 | 0.00 | 0.00 | 0.00 | 47 | 1018.9 |
| 20260507104624 | 49 | 40 | 0.0 | 1.0 | 0.00 | 0.00 | 0.00 | 46 | 1018.9 |
| 20260507104132 | 49 | 41 | 0.0 | 1.0 | 0.00 | 0.00 | 0.00 | 43 | 1018.9 |
| 20260507103612 | 49 | 41 | 0.0 | 0.0 | 0.00 | 0.00 | 0.00 | 43 | 1018.9 |
| 20260507103113 | 49 | 41 | 0.0 | 1.0 | 0.00 | 0.00 | 0.00 | 43 | 1018.9 |
| 20260507102613 | 50 | 41 | 0.0 | 1.0 | 0.00 | 0.00 | 0.00 | 43 | 1018.9 |
| 20260507102122 | 50 | 41 | 0.0 | 1.0 | 0.00 | 0.00 | 0.00 | 41 | 1018.9 |
| 20260507101643 | 50 | 41 | 1.0 | 1.0 | 0.00 | 0.00 | 0.00 | 41 | 1019.0 |
| 20260507101112 | 50 | 330 | 0.0 | 1.0 | 0.00 | 0.00 | 0.00 | 39 | 1019.0 |
| 20260507100612 | 50 | 63 | 0.0 | 2.0 | 0.00 | 0.00 | 0.00 | 41 | 1019.0 |
| 20260507100111 | 50 | 63 | 0.0 | 2.0 | 0.00 | 0.00 | 0.00 | 40 | 1019.1 |
| 20260507095620 | 50 | 63 | 1.0 | 2.0 | 0.00 | 0.00 | 0.00 | 40 | 1019.1 |
| 20260507095121 | 50 | 63 | 1.0 | 1.0 | 0.00 | 0.00 | 0.00 | 40 | 1019.2 |
| 20260507094648 | 50 | 67 | 0.0 | 1.0 | 0.00 | 0.00 | 0.00 | 39 | 1019.2 |
| 20260507094127 | 50 | 83 | 0.0 | 1.0 | 0.00 | 0.00 | 0.00 | 39 | 1019.3 |
| 20260507093636 | 50 | 84 | 0.0 | 1.0 | 0.00 | 0.00 | 0.00 | 39 | 1019.4 |
| 20260507093138 | 50 | 105 | 0.0 | 1.0 | 0.00 | 0.00 | 0.00 | 41 | 1019.4 |
| 20260507092626 | 50 | 105 | 0.0 | 1.0 | 0.00 | 0.00 | 0.00 | 43 | 1019.4 |
| 20260507092127 | 50 | 105 | 0.0 | 1.0 | 0.00 | 0.00 | 0.00 | 43 | 1019.4 |
| 20260507091625 | 50 | 108 | 0.0 | 2.0 | 0.00 | 0.00 | 0.00 | 42 | 1019.5 |
| 20260507091133 | 49 | 108 | 1.0 | 2.0 | 0.00 | 0.00 | 0.00 | 43 | 1019.6 |
| 20260507090634 | 50 | 67 | 0.0 | 1.0 | 0.00 | 0.21 | 0.00 | 41 | 1019.6 |
| 20260507090121 | 50 | 67 | 0.0 | 2.0 | 0.00 | 0.21 | 0.00 | 39 | 1019.7 |
| 20260507085621 | 50 | 67 | 1.0 | 2.0 | 0.00 | 0.21 | 0.00 | 39 | 1019.7 |
| 20260507085129 | 50 | 68 | 0.0 | 1.0 | 0.00 | 0.21 | 0.00 | 40 | 1019.8 |
| 20260507084630 | 50 | 68 | 0.0 | 1.0 | 0.00 | 0.21 | 0.00 | 40 | 1019.8 |
| 20260507084110 | 50 | 68 | 1.0 | 2.0 | 0.00 | 0.21 | 0.00 | 41 | 1019.9 |
| 20260507083638 | 50 | 68 | 1.0 | 2.0 | 0.00 | 0.21 | 0.00 | 41 | 1019.9 |
| 20260507083118 | 50 | 68 | 1.0 | 2.0 | 0.00 | 0.21 | 0.00 | 42 | 1020.0 |
| 20260507082625 | 50 | 72 | 1.0 | 2.0 | 0.00 | 0.21 | 0.00 | 43 | 1020.1 |
| 20260507082126 | 49 | 72 | 1.0 | 2.0 | 0.00 | 0.21 | 0.00 | 42 | 1020.2 |
| 20260507081633 | 49 | 86 | 1.0 | 2.0 | 0.00 | 0.21 | 0.00 | 44 | 1020.3 |
| 20260507081135 | 49 | 94 | 0.0 | 2.0 | 0.00 | 0.22 | 0.00 | 44 | 1020.2 |
| 20260507080621 | 49 | 94 | 1.0 | 2.0 | 0.00 | 0.22 | 0.00 | 44 | 1020.1 |
| 20260507080141 | 49 | 80 | 0.0 | 1.0 | 0.00 | 0.22 | 0.00 | 44 | 1020.2 |
| 20260507075627 | 50 | 81 | 0.0 | 1.0 | 0.00 | 0.22 | 0.00 | 43 | 1020.2 |
| 20260507075129 | 50 | 81 | 0.0 | 2.0 | 0.00 | 0.22 | 0.00 | 42 | 1020.1 |
| 20260507074610 | 49 | 91 | 1.0 | 1.0 | 0.00 | 0.22 | 0.00 | 42 | 1020.3 |
| 20260507074118 | 49 | 122 | 0.0 | 1.0 | 0.00 | 0.22 | 0.00 | 44 | 1020.3 |
| 20260507073617 | 49 | 123 | 0.0 | 1.0 | 0.00 | 0.22 | 0.00 | 43 | 1020.3 |
| 20260507073119 | 49 | 88 | 1.0 | 1.0 | 0.00 | 0.22 | 0.00 | 44 | 1020.3 |
| 20260507072627 | 49 | 102 | 0.0 | 1.0 | 0.00 | 0.22 | 0.00 | 43 | 1020.4 |
| 20260507072128 | 49 | 102 | 0.0 | 1.0 | 0.00 | 0.22 | 0.00 | 44 | 1020.5 |
| 20260507071636 | 49 | 104 | 0.0 | 1.0 | 0.00 | 0.22 | 0.00 | 45 | 1020.6 |
| 20260507071117 | 49 | 28 | 0.0 | 1.0 | 0.00 | 0.22 | 0.00 | 44 | 1020.6 |
| 20260507070617 | 49 | 28 | 0.0 | 1.0 | 0.00 | 0.28 | 0.00 | 44 | 1020.7 |
| 20260507070124 | 49 | 28 | 0.0 | 1.0 | 0.00 | 0.28 | 0.00 | 45 | 1020.7 |
| 20260507065652 | 49 | 22 | 0.0 | 1.0 | 0.00 | 0.28 | 0.00 | 45 | 1020.7 |
| 20260507065111 | 49 | 284 | 0.0 | 1.0 | 0.00 | 0.28 | 0.00 | 45 | 1020.8 |
| 20260507064612 | 49 | 284 | 0.0 | 1.0 | 0.00 | 0.28 | 0.00 | 44 | 1020.7 |
| 20260507064141 | 50 | 284 | 0.0 | 1.0 | 0.00 | 0.28 | 0.00 | 43 | 1020.6 |
| 20260507063621 | 51 | 58 | 0.0 | 2.0 | 0.00 | 0.28 | 0.00 | 41 | 1020.6 |
| 20260507063128 | 51 | 58 | 1.0 | 2.0 | 0.00 | 0.28 | 0.00 | 39 | 1020.6 |
| 20260507062629 | 51 | 61 | 0.0 | 1.0 | 0.00 | 0.28 | 0.00 | 41 | 1020.6 |
| 20260507062110 | 51 | 61 | 0.0 | 1.0 | 0.00 | 0.28 | 0.00 | 41 | 1020.6 |
| 20260507061617 | 51 | 56 | 0.0 | 1.0 | 0.00 | 0.28 | 0.00 | 40 | 1020.5 |
| 20260507061139 | 51 | 56 | 0.0 | 1.0 | 0.00 | 0.28 | 0.00 | 39 | 1020.5 |
| 20260507060623 | 51 | 56 | 1.0 | 1.0 | 0.00 | 0.28 | 0.28 | 39 | 1020.5 |
| 20260507060130 | 51 | 56 | 0.0 | 1.0 | 0.00 | 0.28 | 0.28 | 40 | 1020.5 |
| 20260507055651 | 51 | 56 | 0.0 | 1.0 | 0.00 | 0.28 | 0.28 | 39 | 1020.5 |
| 20260507055118 | 51 | 56 | 0.0 | 1.0 | 0.00 | 0.28 | 0.28 | 38 | 1020.5 |
| 20260507054616 | 51 | 51 | 0.0 | 1.0 | 0.00 | 0.28 | 0.28 | 38 | 1020.4 |
| 20260507054124 | 51 | 51 | 0.0 | 2.0 | 0.00 | 0.28 | 0.28 | 40 | 1020.4 |
| 20260507053625 | 51 | 65 | 0.0 | 2.0 | 0.00 | 0.28 | 0.28 | 40 | 1020.5 |
| 20260507053127 | 51 | 68 | 1.0 | 2.0 | 0.00 | 0.28 | 0.28 | 40 | 1020.5 |
| 20260507052635 | 51 | 126 | 1.0 | 1.0 | 0.00 | 0.28 | 0.28 | 40 | 1020.6 |
| 20260507052116 | 52 | 62 | 0.0 | 1.0 | 0.00 | 0.28 | 0.28 | 39 | 1020.6 |
| 20260507051644 | 52 | 62 | 0.0 | 2.0 | 0.00 | 0.28 | 0.28 | 38 | 1020.5 |
| 20260507051144 | 51 | 63 | 0.0 | 2.0 | 0.00 | 0.28 | 0.28 | 38 | 1020.6 |
| 20260507050651 | 52 | 75 | 0.0 | 1.0 | 0.00 | 0.28 | 0.28 | 38 | 1020.6 |
| 20260507050138 | 52 | 75 | 0.0 | 2.0 | 0.00 | 0.28 | 0.28 | 38 | 1020.4 |
| 20260507045619 | 52 | 67 | 1.0 | 2.0 | 0.00 | 0.28 | 0.28 | 37 | 1020.6 |
| 20260507045119 | 52 | 60 | 0.0 | 1.0 | 0.00 | 0.28 | 0.28 | 38 | 1020.7 |
| 20260507044648 | 52 | 60 | 0.0 | 2.0 | 0.00 | 0.28 | 0.28 | 38 | 1020.6 |
| 20260507044128 | 52 | 61 | 1.0 | 3.0 | 0.00 | 0.28 | 0.28 | 38 | 1020.6 |
| 20260507043638 | 52 | 68 | 1.0 | 3.0 | 0.00 | 0.28 | 0.28 | 39 | 1020.6 |
| 20260507043119 | 52 | 106 | 1.0 | 3.0 | 0.00 | 0.28 | 0.28 | 39 | 1020.6 |
| 20260507042636 | 52 | 74 | 1.0 | 2.0 | 0.00 | 0.28 | 0.28 | 39 | 1020.6 |
| 20260507042123 | 52 | 71 | 1.0 | 2.0 | 0.00 | 0.28 | 0.28 | 40 | 1020.6 |
| 20260507041624 | 51 | 23 | 0.0 | 1.0 | 0.00 | 0.28 | 0.28 | 39 | 1020.4 |
| 20260507041125 | 51 | 360 | 0.0 | 1.0 | 0.00 | 0.28 | 0.28 | 41 | 1020.4 |
| 20260507040633 | 52 | 360 | 0.0 | 1.0 | 0.00 | 0.28 | 0.28 | 41 | 1020.4 |
| 20260507040115 | 52 | 276 | 0.0 | 1.0 | 0.00 | 0.28 | 0.28 | 40 | 1020.5 |
| 20260507035616 | 52 | 58 | 0.0 | 1.0 | 0.00 | 0.28 | 0.28 | 38 | 1020.5 |
| 20260507035123 | 52 | 58 | 0.0 | 1.0 | 0.00 | 0.28 | 0.28 | 38 | 1020.5 |
| 20260507034625 | 53 | 58 | 0.0 | 1.0 | 0.00 | 0.28 | 0.28 | 37 | 1020.5 |
| 20260507034132 | 53 | 57 | 0.0 | 1.0 | 0.00 | 0.28 | 0.28 | 38 | 1020.5 |
| 20260507033613 | 53 | 58 | 0.0 | 2.0 | 0.00 | 0.28 | 0.28 | 36 | 1020.5 |
| 20260507033113 | 53 | 65 | 1.0 | 2.0 | 0.00 | 0.28 | 0.28 | 36 | 1020.4 |
| 20260507032641 | 54 | 42 | 1.0 | 2.0 | 0.00 | 0.28 | 0.28 | 37 | 1020.3 |
| 20260507032140 | 54 | 69 | 0.0 | 2.0 | 0.00 | 0.28 | 0.28 | 36 | 1020.3 |
| 20260507031627 | 54 | 47 | 0.0 | 3.0 | 0.00 | 0.28 | 0.28 | 36 | 1020.2 |
| 20260507031128 | 54 | 110 | 1.0 | 3.0 | 0.00 | 0.28 | 0.28 | 36 | 1020.0 |
| 20260507030636 | 54 | 54 | 0.0 | 2.0 | 0.00 | 0.28 | 0.28 | 35 | 1019.9 |
| 20260507030116 | 55 | 30 | 0.0 | 1.0 | 0.00 | 0.28 | 0.28 | 36 | 1019.9 |
| 20260507025616 | 55 | 44 | 0.0 | 1.0 | 0.00 | 0.28 | 0.28 | 35 | 1019.9 |
| 20260507025144 | 55 | 53 | 1.0 | 1.0 | 0.00 | 0.28 | 0.28 | 35 | 1019.9 |
| 20260507024624 | 56 | 51 | 0.0 | 2.0 | 0.00 | 0.28 | 0.28 | 34 | 1019.9 |
| 20260507024132 | 57 | 55 | 0.0 | 2.0 | 0.00 | 0.28 | 0.28 | 33 | 1019.9 |
| 20260507023612 | 58 | 36 | 0.0 | 2.0 | 0.00 | 0.28 | 0.28 | 32 | 1020.1 |
| 20260507023113 | 59 | 36 | 1.0 | 2.0 | 0.00 | 0.28 | 0.28 | 30 | 1020.0 |
| 20260507022615 | 61 | 306 | 0.0 | 0.0 | 0.00 | 0.28 | 0.28 | 28 | 1020.0 |
| 20260507022122 | 62 | 305 | 0.0 | 0.0 | 0.00 | 0.28 | 0.28 | 26 | 1019.9 |
| 20260507021624 | 63 | 305 | 0.0 | 1.0 | 0.00 | 0.28 | 0.28 | 24 | 1019.9 |
| 20260507021132 | 63 | 306 | 0.0 | 1.0 | 0.00 | 0.28 | 0.28 | 24 | 1019.9 |
| 20260507020613 | 64 | 233 | 0.0 | 1.0 | 0.00 | 0.28 | 0.28 | 24 | 1020.0 |
| 20260507020120 | 64 | 236 | 0.0 | 1.0 | 0.00 | 0.28 | 0.28 | 23 | 1019.9 |
| 20260507015641 | 66 | 256 | 0.0 | 1.0 | 0.00 | 0.28 | 0.28 | 23 | 1020.0 |
| 20260507015128 | 66 | 150 | 0.0 | 2.0 | 0.00 | 0.28 | 0.28 | 22 | 1020.1 |
| 20260507014629 | 66 | 148 | 0.0 | 2.0 | 0.00 | 0.28 | 0.28 | 22 | 1020.1 |
| 20260507014137 | 66 | 195 | 0.0 | 2.0 | 0.00 | 0.28 | 0.28 | 22 | 1020.1 |
| 20260507013617 | 66 | 172 | 0.0 | 2.0 | 0.00 | 0.28 | 0.28 | 22 | 1020.1 |
| 20260507013117 | 66 | 172 | 0.0 | 3.0 | 0.00 | 0.28 | 0.28 | 23 | 1020.2 |
| 20260507012624 | 66 | 221 | 0.0 | 3.0 | 0.00 | 0.28 | 0.28 | 23 | 1020.2 |
| 20260507012125 | 66 | 142 | 0.0 | 3.0 | 0.00 | 0.28 | 0.28 | 22 | 1020.1 |
| 20260507011626 | 65 | 141 | 1.0 | 3.0 | 0.00 | 0.28 | 0.28 | 23 | 1020.1 |
| 20260507011134 | 65 | 23 | 0.0 | 2.0 | 0.00 | 0.28 | 0.28 | 23 | 1020.1 |
| 20260507010614 | 64 | 152 | 1.0 | 4.0 | 0.00 | 0.28 | 0.28 | 22 | 1020.2 |
| 20260507010115 | 65 | 256 | 0.0 | 3.0 | 0.00 | 0.28 | 0.28 | 23 | 1020.3 |
| 20260507005623 | 64 | 27 | 1.0 | 5.0 | 0.00 | 0.28 | 0.28 | 25 | 1020.2 |
| 20260507005123 | 64 | 275 | 0.0 | 2.0 | 0.00 | 0.28 | 0.28 | 23 | 1020.2 |
| 20260507004624 | 64 | 36 | 1.0 | 3.0 | 0.00 | 0.28 | 0.28 | 23 | 1020.2 |
| 20260507004132 | 64 | 20 | 0.0 | 6.0 | 0.00 | 0.28 | 0.28 | 24 | 1020.3 |
| 20260507003147 | 64 | 257 | 0.0 | 3.0 | 0.00 | 0.28 | 0.28 | 24 | 1020.3 |
| 20260507002628 | 64 | 233 | 1.0 | 7.0 | 0.00 | 0.28 | 0.28 | 25 | 1020.3 |
| 20260507002128 | 64 | 301 | 3.0 | 7.0 | 0.00 | 0.28 | 0.28 | 25 | 1020.3 |
| 20260507001637 | 64 | 9 | 1.0 | 7.0 | 0.00 | 0.28 | 0.28 | 25 | 1020.2 |
| 20260507001116 | 63 | 8 | 2.0 | 9.0 | 0.00 | 0.28 | 0.28 | 26 | 1020.1 |
| 20260507000615 | 63 | 281 | 3.0 | 9.0 | 0.00 | 0.28 | 0.28 | 25 | 1020.1 |
| 20260507000121 | 63 | 240 | 3.0 | 10.0 | 0.00 | 0.28 | 0.28 | 25 | 1020.1 |
| 20260506235623 | 63 | 268 | 5.0 | 10.0 | 0.00 | 0.28 | 0.28 | 25 | 1020.0 |
| 20260506235124 | 64 | 277 | 4.0 | 9.0 | 0.00 | 0.28 | 0.28 | 25 | 1019.9 |
| 20260506234631 | 65 | 273 | 2.0 | 6.0 | 0.00 | 0.28 | 0.28 | 24 | 1019.9 |
| 20260506234132 | 64 | 240 | 3.0 | 6.0 | 0.00 | 0.28 | 0.28 | 25 | 1019.9 |
| 20260506233640 | 64 | 285 | 2.0 | 9.0 | 0.00 | 0.28 | 0.28 | 25 | 1019.9 |
| 20260506233120 | 64 | 274 | 5.0 | 9.0 | 0.00 | 0.28 | 0.28 | 25 | 1019.9 |
| 20260506232627 | 64 | 315 | 1.0 | 6.0 | 0.00 | 0.28 | 0.28 | 26 | 1019.9 |
| 20260506232129 | 63 | 302 | 2.0 | 9.0 | 0.00 | 0.28 | 0.28 | 25 | 1019.9 |
| 20260506231630 | 63 | 293 | 4.0 | 9.0 | 0.00 | 0.28 | 0.28 | 25 | 1019.9 |
| 20260506231137 | 63 | 265 | 2.0 | 9.0 | 0.00 | 0.28 | 0.28 | 26 | 1020.1 |
| 20260506230639 | 63 | 292 | 4.0 | 9.0 | 0.00 | 0.28 | 0.28 | 26 | 1020.1 |
| 20260506230124 | 63 | 313 | 5.0 | 10.0 | 0.00 | 0.28 | 0.28 | 26 | 1019.9 |
| 20260506225626 | 63 | 264 | 5.0 | 10.0 | 0.00 | 0.28 | 0.28 | 25 | 1020.0 |
| 20260506225133 | 63 | 319 | 2.0 | 5.0 | 0.00 | 0.28 | 0.28 | 27 | 1020.1 |
| 20260506224613 | 63 | 282 | 3.0 | 9.0 | 0.00 | 0.28 | 0.28 | 27 | 1020.1 |
| 20260506224115 | 64 | 290 | 4.0 | 9.0 | 0.00 | 0.28 | 0.28 | 24 | 1020.1 |
| 20260506223642 | 63 | 287 | 1.0 | 8.0 | 0.00 | 0.28 | 0.28 | 27 | 1019.9 |
| 20260506223121 | 63 | 251 | 3.0 | 8.0 | 0.00 | 0.28 | 0.28 | 26 | 1020.2 |
| 20260506222629 | 62 | 239 | 3.0 | 8.0 | 0.00 | 0.28 | 0.28 | 25 | 1020.2 |
| 20260506222126 | 63 | 229 | 4.0 | 12.0 | 0.00 | 0.28 | 0.28 | 27 | 1020.2 |
| 20260506221627 | 62 | 284 | 5.0 | 12.0 | 0.00 | 0.28 | 0.28 | 27 | 1020.2 |
| 20260506221135 | 62 | 253 | 5.0 | 11.0 | 0.00 | 0.28 | 0.28 | 27 | 1020.3 |
| 20260506220616 | 62 | 208 | 5.0 | 15.0 | 0.00 | 0.28 | 0.28 | 28 | 1020.3 |
| 20260506220122 | 61 | 243 | 7.0 | 15.0 | 0.00 | 0.28 | 0.28 | 27 | 1020.2 |
| 20260506215621 | 61 | 255 | 4.0 | 12.0 | 0.00 | 0.28 | 0.28 | 30 | 1020.3 |
| 20260506215122 | 62 | 284 | 6.0 | 12.0 | 0.00 | 0.28 | 0.28 | 27 | 1020.3 |
| 20260506214131 | 62 | 249 | 6.0 | 14.0 | 0.00 | 0.28 | 0.28 | 27 | 1020.4 |
| 20260506213612 | 61 | 252 | 5.0 | 14.0 | 0.00 | 0.28 | 0.28 | 26 | 1020.4 |
| 20260506213119 | 62 | 293 | 8.0 | 14.0 | 0.00 | 0.28 | 0.28 | 28 | 1020.3 |
| 20260506212620 | 62 | 298 | 6.0 | 17.0 | 0.00 | 0.28 | 0.28 | 26 | 1020.4 |
| 20260506212121 | 62 | 316 | 8.0 | 14.0 | 0.00 | 0.28 | 0.28 | 26 | 1020.4 |
| 20260506211650 | 61 | 259 | 5.0 | 11.0 | 0.00 | 0.28 | 0.28 | 26 | 1020.3 |
| 20260506211129 | 61 | 311 | 5.0 | 11.0 | 0.00 | 0.28 | 0.28 | 28 | 1020.3 |
| 20260506210618 | 61 | 231 | 6.0 | 14.0 | 0.00 | 0.28 | 0.28 | 25 | 1020.3 |
| 20260506210115 | 62 | 296 | 4.0 | 14.0 | 0.00 | 0.28 | 0.28 | 29 | 1020.4 |
| 20260506205642 | 61 | 260 | 5.0 | 11.0 | 0.00 | 0.28 | 0.28 | 27 | 1020.3 |
| 20260506205129 | 61 | 220 | 6.0 | 11.0 | 0.00 | 0.28 | 0.28 | 27 | 1020.4 |
| 20260506204630 | 61 | 266 | 5.0 | 10.0 | 0.00 | 0.28 | 0.28 | 27 | 1020.4 |
| 20260506204111 | 61 | 333 | 2.0 | 12.0 | 0.00 | 0.28 | 0.28 | 28 | 1020.3 |
| 20260506203612 | 61 | 330 | 4.0 | 10.0 | 0.00 | 0.28 | 0.28 | 27 | 1020.4 |
| 20260506203119 | 61 | 275 | 1.0 | 9.0 | 0.00 | 0.28 | 0.28 | 25 | 1020.4 |
| 20260506202620 | 60 | 338 | 4.0 | 13.0 | 0.00 | 0.28 | 0.28 | 26 | 1020.4 |
| 20260506202130 | 60 | 244 | 6.0 | 13.0 | 0.00 | 0.28 | 0.28 | 27 | 1020.4 |
| 20260506201629 | 59 | 264 | 3.0 | 12.0 | 0.00 | 0.28 | 0.28 | 27 | 1020.3 |
| 20260506201129 | 60 | 243 | 6.0 | 12.0 | 0.00 | 0.28 | 0.28 | 26 | 1020.4 |
| 20260506200638 | 60 | 293 | 7.0 | 11.0 | 0.00 | 0.28 | 0.28 | 26 | 1020.6 |
| 20260506200117 | 60 | 48 | 3.0 | 8.0 | 0.00 | 0.28 | 0.28 | 26 | 1020.5 |
| 20260506195617 | 60 | 239 | 2.0 | 8.0 | 0.00 | 0.28 | 0.28 | 26 | 1020.5 |
| 20260506195124 | 59 | 245 | 4.0 | 8.0 | 0.00 | 0.28 | 0.28 | 27 | 1020.5 |
| 20260506194625 | 59 | 264 | 3.0 | 7.0 | 0.00 | 0.28 | 0.28 | 24 | 1020.6 |
| 20260506194127 | 60 | 30 | 2.0 | 5.0 | 0.00 | 0.28 | 0.28 | 25 | 1020.6 |
| 20260506193615 | 60 | 9 | 1.0 | 5.0 | 0.00 | 0.28 | 0.28 | 29 | 1020.6 |
| 20260506193116 | 59 | 290 | 2.0 | 8.0 | 0.00 | 0.28 | 0.28 | 26 | 1020.6 |
| 20260506192643 | 58 | 243 | 5.0 | 8.0 | 0.00 | 0.28 | 0.28 | 26 | 1020.6 |
| 20260506192151 | 58 | 300 | 2.0 | 7.0 | 0.00 | 0.28 | 0.28 | 25 | 1020.5 |
| 20260506191630 | 58 | 316 | 4.0 | 13.0 | 0.00 | 0.28 | 0.28 | 26 | 1020.6 |
| 20260506191111 | 58 | 326 | 7.0 | 13.0 | 0.00 | 0.28 | 0.28 | 25 | 1020.6 |
| 20260506190611 | 58 | 275 | 2.0 | 7.0 | 0.00 | 0.28 | 0.28 | 26 | 1020.6 |
| 20260506190118 | 58 | 48 | 1.0 | 10.0 | 0.00 | 0.28 | 0.28 | 26 | 1020.6 |
| 20260506185618 | 57 | 10 | 3.0 | 10.0 | 0.00 | 0.28 | 0.28 | 26 | 1020.6 |
| 20260506185146 | 57 | 288 | 1.0 | 7.0 | 0.00 | 0.28 | 0.28 | 27 | 1020.6 |
| 20260506184630 | 57 | 297 | 3.0 | 7.0 | 0.00 | 0.28 | 0.28 | 26 | 1020.6 |
| 20260506184130 | 57 | 359 | 3.0 | 7.0 | 0.00 | 0.28 | 0.28 | 29 | 1020.7 |
| 20260506183637 | 57 | 250 | 1.0 | 8.0 | 0.00 | 0.28 | 0.28 | 28 | 1020.7 |
| 20260506183118 | 56 | 140 | 1.0 | 8.0 | 0.00 | 0.28 | 0.28 | 27 | 1020.6 |
| 20260506182619 | 56 | 300 | 4.0 | 8.0 | 0.00 | 0.28 | 0.28 | 29 | 1020.6 |
| 20260506182147 | 56 | 300 | 1.0 | 10.0 | 0.00 | 0.28 | 0.28 | 28 | 1020.7 |
| 20260506181627 | 56 | 274 | 5.0 | 10.0 | 0.00 | 0.28 | 0.28 | 29 | 1020.7 |
| 20260506181134 | 55 | 339 | 2.0 | 8.0 | 0.00 | 0.28 | 0.28 | 28 | 1020.6 |
| 20260506180637 | 55 | 293 | 4.0 | 8.0 | 0.00 | 0.28 | 0.28 | 26 | 1020.7 |
| 20260506180124 | 56 | 261 | 2.0 | 6.0 | 0.00 | 0.28 | 0.28 | 26 | 1020.7 |
| 20260506175625 | 56 | 34 | 3.0 | 7.0 | 0.00 | 0.28 | 0.28 | 29 | 1020.7 |
| 20260506175154 | 55 | 157 | 2.0 | 8.0 | 0.00 | 0.28 | 0.28 | 28 | 1020.6 |
| 20260506174633 | 55 | 101 | 3.0 | 6.0 | 0.00 | 0.28 | 0.28 | 29 | 1020.5 |
| 20260506174141 | 55 | 117 | 1.0 | 7.0 | 0.00 | 0.28 | 0.28 | 30 | 1020.6 |
| 20260506173620 | 54 | 89 | 3.0 | 10.0 | 0.00 | 0.28 | 0.28 | 27 | 1020.5 |
| 20260506173128 | 54 | 28 | 4.0 | 10.0 | 0.00 | 0.28 | 0.28 | 30 | 1020.4 |
| 20260506172629 | 54 | 70 | 3.0 | 9.0 | 0.00 | 0.28 | 0.28 | 32 | 1020.4 |
| 20260506172130 | 54 | 330 | 4.0 | 9.0 | 0.00 | 0.28 | 0.28 | 31 | 1020.4 |
| 20260506171638 | 54 | 77 | 5.0 | 9.0 | 0.00 | 0.28 | 0.28 | 30 | 1020.4 |
| 20260506171116 | 55 | 63 | 1.0 | 5.0 | 0.00 | 0.28 | 0.28 | 33 | 1020.3 |
| 20260506170636 | 54 | 253 | 2.0 | 7.0 | 0.00 | 0.28 | 0.28 | 33 | 1020.3 |
| 20260506170121 | 54 | 336 | 2.0 | 7.0 | 0.00 | 0.28 | 0.28 | 33 | 1020.2 |
| 20260506165622 | 53 | 39 | 1.0 | 7.0 | 0.00 | 0.28 | 0.28 | 34 | 1020.1 |
| 20260506165146 | 53 | 24 | 1.0 | 6.0 | 0.00 | 0.28 | 0.28 | 31 | 1019.9 |
| 20260506164626 | 53 | 272 | 4.0 | 6.0 | 0.00 | 0.28 | 0.28 | 30 | 1019.9 |
| 20260506164117 | 53 | 233 | 1.0 | 6.0 | 0.00 | 0.28 | 0.28 | 36 | 1019.9 |
| 20260506163618 | 53 | 307 | 2.0 | 10.0 | 0.00 | 0.28 | 0.28 | 39 | 1019.8 |
| 20260506163121 | 53 | 7 | 3.0 | 10.0 | 0.00 | 0.28 | 0.28 | 34 | 1019.7 |
| 20260506162642 | 53 | 145 | 2.0 | 10.0 | 0.00 | 0.28 | 0.28 | 34 | 1019.6 |
| 20260506162129 | 53 | 94 | 3.0 | 5.0 | 0.00 | 0.28 | 0.28 | 34 | 1019.5 |
| 20260506161630 | 52 | 246 | 1.0 | 8.0 | 0.00 | 0.28 | 0.28 | 40 | 1019.6 |
| 20260506161112 | 52 | 56 | 3.0 | 9.0 | 0.00 | 0.28 | 0.28 | 41 | 1019.6 |
| 20260506160619 | 51 | 42 | 3.0 | 9.0 | 0.00 | 0.28 | 0.28 | 43 | 1019.6 |
| 20260506160119 | 51 | 110 | 4.0 | 8.0 | 0.00 | 0.28 | 0.28 | 43 | 1019.4 |
| 20260506155627 | 51 | 79 | 5.0 | 8.0 | 0.00 | 0.28 | 0.28 | 41 | 1019.4 |
| 20260506155127 | 51 | 41 | 4.0 | 8.0 | 0.00 | 0.28 | 0.28 | 42 | 1019.3 |
| 20260506154636 | 51 | 43 | 5.0 | 9.0 | 0.00 | 0.28 | 0.28 | 41 | 1019.3 |
| 20260506154116 | 52 | 63 | 2.0 | 9.0 | 0.00 | 0.28 | 0.28 | 42 | 1019.3 |
| 20260506153637 | 52 | 33 | 1.0 | 4.0 | 0.00 | 0.28 | 0.28 | 42 | 1019.3 |
| 20260506153124 | 51 | 338 | 1.0 | 4.0 | 0.00 | 0.28 | 0.28 | 43 | 1019.3 |
| 20260506152626 | 52 | 15 | 1.0 | 2.0 | 0.00 | 0.28 | 0.28 | 44 | 1019.3 |
| 20260506152136 | 51 | 3 | 1.0 | 5.0 | 0.00 | 0.28 | 0.28 | 43 | 1019.2 |
| 20260506151614 | 51 | 11 | 1.0 | 5.0 | 0.00 | 0.28 | 0.28 | 42 | 1019.1 |
| 20260506151116 | 51 | 317 | 1.0 | 2.0 | 0.00 | 0.28 | 0.28 | 43 | 1019.1 |
| 20260506150642 | 50 | 23 | 1.0 | 6.0 | 0.00 | 0.28 | 0.28 | 43 | 1019.1 |
| 20260506150121 | 50 | 290 | 3.0 | 6.0 | 0.00 | 0.28 | 0.28 | 43 | 1018.9 |
| 20260506145630 | 51 | 345 | 1.0 | 5.0 | 0.00 | 0.28 | 0.28 | 44 | 1018.9 |
| 20260506145130 | 51 | 305 | 2.0 | 5.0 | 0.00 | 0.28 | 0.28 | 46 | 1018.8 |
| 20260506144658 | 51 | 331 | 0.0 | 5.0 | 0.00 | 0.28 | 0.28 | 46 | 1018.7 |
| 20260506144139 | 50 | 303 | 1.0 | 5.0 | 0.00 | 0.28 | 0.28 | 44 | 1018.7 |
| 20260506143620 | 50 | 293 | 0.0 | 3.0 | 0.00 | 0.28 | 0.28 | 43 | 1018.6 |
| 20260506143128 | 51 | 301 | 0.0 | 2.0 | 0.00 | 0.28 | 0.28 | 44 | 1018.7 |
| 20260506142630 | 51 | 301 | 0.0 | 2.0 | 0.00 | 0.28 | 0.28 | 43 | 1018.8 |
| 20260506142138 | 51 | 360 | 0.0 | 4.0 | 0.00 | 0.28 | 0.28 | 45 | 1018.7 |